Location: Coopersdale
(40.3556°N, 78.9372°W)
Time: 19:24:00
(UTC+00:00)

Transit 4A - Pass Details

Date: 30 January 2021
Orbit: 866 x 978 km, 66.8° (Epoch: 26 February)

Event Time Altitude Azimuth Distance (km) Brightness Sun altitude
Rises 08:37:06 0° 325° (NW) 3,602 - -43.7°
Reaches altitude 10° 08:39:46 10° 319° (NW) 2,636 - -43.2°
Maximum altitude 08:45:32 45° 249° (WSW) 1,217 - -42.1°
Drops below altitude 10° 08:51:07 10° 178° (S) 2,548 - -41.1°
Sets 08:53:40 0° 172° (S) 3,470 - -40.6°
